Location: Besana
(45.7000°N, 9.2833°E)
Time: 01:56:19
(UTC+00:00)

Daily predictions for brighter satellites

Satellite Brightness Start Highest point End
(mag) Time Altitude Azimuth Time Altitude Azimuth Time Altitude Azimuth
SL-16 R/B 3.5 03:17:58 37° E 03:17:58 37° E 03:21:50 10° SE
USA 234 3.2 03:28:00 10° NE 03:33:58 76° NE 03:33:58 76° NE
ATLAS 5 CENTAUR R/B 3.8 03:37:51 21° NE 03:37:51 21° NE 03:39:31 10° NE
Cosmos 1241 Rocket 4.3 03:54:34 81° NNE 03:54:48 83° NE 04:01:00 10° SE
CZ-4C R/B 3.1 03:54:02 48° NNW 03:56:19 72° NE 04:04:29 10° SE
Aureole 1 Rocket 4.0 04:03:10 55° SSW 04:03:10 55° SSW 04:08:30 10° SSE
Cosmos 1484 Rocket 4.1 04:02:19 10° NNE 04:06:05 40° E 04:09:45 10° SSE
Cosmos 1464 Rocket 3.9 04:00:20 10° S 04:06:33 89° E 04:12:44 10° N
Cosmos 2056 Rocket 4.2 04:07:01 10° S 04:11:56 50° ESE 04:16:53 10° NNE
Lacrosse 5 2.9 04:14:14 33° S 04:14:14 33° S 04:17:25 10° SSE
Cosmos 1190 Rocket 4.1 04:14:28 47° N 04:15:55 70° ENE 04:21:08 10° SSE
Cosmos 2297 Rocket 3.2 04:24:20 30° NNW 04:24:20 30° NNW 04:27:44 10° NNE
Cosmos 1072 Rocket 4.3 04:20:05 10° SSW 04:26:06 61° WNW 04:32:11 10° N
Cosmos 2227 Rocket 3.1 04:27:52 33° NNW 04:27:52 33° NNW 04:31:37 10° NNE
Geosat 3.8 04:21:28 10° SSE 04:26:29 76° WSW 04:27:14 63° NW
ALOS 3.2 04:26:02 10° NNE 04:30:35 48° E 04:35:05 10° S
Cosmos 1933 Rocket 3.6 04:26:31 10° S 04:30:49 75° E 04:35:10 10° NNE
Okean 1-7 4.2 04:29:48 10° N 04:34:02 43° ENE 04:38:13 10° SSE
FENGYUN 3A 4.2 04:34:24 10° NNE 04:39:45 58° E 04:45:02 10° S
STARLINK 1064 4.4 04:40:13 31° NNE 04:40:13 31° NNE 04:43:08 10° E
Nadezhda 4 Rocket 3.8 04:35:20 10° NNW 04:41:33 72° W 04:47:40 10° S
STARLINK 1041 4.3 04:42:51 32° NNE 04:42:51 32° NNE 04:45:54 10° E
STARLINK 1038 4.3 04:45:30 33° NNE 04:45:33 33° NNE 04:48:42 10° E
MOS 1-B 4.3 04:42:11 10° NNE 04:48:00 85° ESE 04:53:47 10° SSW
STARLINK 1046 4.2 04:48:08 34° NNE 04:48:18 34° NNE 04:51:28 10° E
Cosmos 1943 3.8 04:43:52 15° NNW 04:48:29 54° ENE 04:53:58 10° SE
STARLINK 1039 4.1 04:50:48 34° N 04:51:05 35° NNE 04:54:16 10° E
STARLINK 1045 4.1 04:51:31 34° N 04:51:51 35° NNE 04:55:02 10° E
FALCON 9 DEB 4.2 04:53:10 26° ENE 04:53:10 26° ENE 04:54:40 10° E
Cosmos 1461 3.0 04:51:01 37° NNW 04:52:36 77° NE 04:56:58 10° SE
COSMO-SKYMED 1 2.5 04:49:04 10° S 04:53:21 60° W 04:55:02 34° NW
Okean O Rocket 2.2 04:50:35 10° NNE 04:54:55 59° E 04:59:16 10° S
NOSS 2-1 (C) 4.5 04:52:06 27° NW 04:55:24 85° NE 05:03:00 10° SE
STARLINK 1034 3.8 04:58:17 35° NNE 04:58:25 35° NNE 05:01:11 10° E
NOSS 2-1 (D) 4.4 04:55:34 26° NW 04:58:58 89° NE 05:06:36 10° SE
STARLINK 1027 3.7 04:59:00 35° NNE 04:59:09 35° NNE 05:01:53 10° E
STARLINK 1028 3.7 04:59:14 35° NNE 04:59:23 35° NNE 05:02:08 10° E
STARLINK 1021 3.7 04:59:27 35° NNE 04:59:37 35° NNE 05:02:21 10° E
OE (NEXTSAT) 4.2 04:59:09 59° W 04:59:44 90° SSW 05:03:17 10° E
STARLINK 1019 3.7 04:59:37 35° N 04:59:50 36° NNE 05:02:36 10° E
STARLINK 1012 3.7 04:59:51 35° NNE 05:00:02 36° NNE 05:02:47 10° E
Cosmos 2242 Rocket 3.8 04:58:14 30° NW 05:00:08 50° W 05:04:29 10° SSW
NOAA 6 4.4 04:55:04 10° NNE 05:00:11 66° ESE 05:05:16 10° S
SL-16 R/B 3.0 04:59:54 29° W 05:00:15 30° WSW 05:05:05 10° SSW
STARLINK 1010 3.7 05:00:04 35° NNE 05:00:16 36° NNE 05:03:01 10° E
STARLINK 1052 3.7 05:00:05 35° N 05:00:18 36° NNE 05:03:03 10° E
STARLINK 1026 3.7 05:00:19 35° N 05:00:31 36° NNE 05:03:16 10° E
STARLINK 1013 3.7 05:00:32 35° N 05:00:45 36° NNE 05:03:29 10° E
GEOS 3 Rocket 4.5 04:56:37 10° S 05:00:57 28° WSW 05:01:33 27° WSW
STARLINK 1009 3.7 05:00:44 35° N 05:00:57 36° NNE 05:03:42 10° E
STARLINK 1015 3.7 05:00:57 35° N 05:01:11 36° NNE 05:03:56 10° E
STARLINK 1016 3.7 05:01:10 36° N 05:01:25 36° NNE 05:04:10 10° E
STARLINK 1008 3.7 05:01:24 36° N 05:01:39 36° NNE 05:04:24 10° E
STARLINK 1014 3.7 05:01:36 36° N 05:01:52 36° NNE 05:04:37 10° E
STARLINK 1017 3.7 05:01:40 36° N 05:01:56 37° NNE 05:04:41 10° E
STARLINK 1025 3.6 05:01:49 36° N 05:02:06 37° NNE 05:04:51 10° E
STARLINK 1023 3.6 05:02:16 36° N 05:02:33 37° NNE 05:05:19 10° E
STARLINK 1007 3.6 05:02:27 36° N 05:02:45 37° NNE 05:05:31 10° E
Cosmos 1470 Rocket 4.0 04:58:42 10° SW 05:02:52 38° WNW 05:07:05 10° N
STARLINK 1048 3.6 05:02:41 36° N 05:02:59 37° NNE 05:05:45 10° E
STARLINK 1049 3.6 05:02:54 36° N 05:03:13 37° NNE 05:05:59 10° E
STARLINK 1040 3.6 05:02:58 37° N 05:03:18 39° NNE 05:06:06 10° E
STARLINK 1051 3.6 05:03:06 36° N 05:03:26 37° NNE 05:06:12 10° E
Cosmos 724 4.2 04:57:35 10° SW 05:03:38 71° NW 05:09:35 10° NNE
STARLINK 1037 3.6 05:03:20 36° N 05:03:41 37° NNE 05:06:26 10° E
Helios 1A Rocket 3.2 04:59:46 10° NNE 05:03:48 68° ESE 05:07:48 10° S
STARLINK 1059 3.6 05:03:32 36° N 05:03:53 38° NNE 05:06:40 10° E
STARLINK 1057 3.6 05:03:45 36° N 05:04:07 38° NNE 05:06:53 10° E
Cosmos 2026 Rocket 4.1 04:57:58 10° N 05:04:09 80° E 05:10:22 10° S
STARLINK 1068 3.6 05:04:12 36° N 05:04:34 38° NNE 05:07:21 10° E
Cosmos 1371 Rocket 4.1 04:59:30 10° SW 05:04:35 50° WNW 05:09:40 10° NNE
STARLINK 1029 3.6 05:04:25 36° N 05:04:48 38° NNE 05:07:34 10° E
Cosmos 2084 Rocket 3.4 05:03:01 34° NW 05:04:54 75° SW 05:09:17 10° SSE
STARLINK 1060 3.6 05:04:38 36° N 05:05:02 38° NNE 05:07:48 10° E
STARLINK 1030 3.6 05:04:48 36° N 05:05:15 39° NNE 05:08:03 10° E
STARLINK 1020 3.6 05:05:03 36° N 05:05:27 38° NNE 05:08:14 10° E
Cosmos 614 Rocket 4.5 05:04:28 32° WNW 05:05:42 36° WSW 05:10:20 10° SSW
STARLINK 1033 3.6 05:05:42 36° N 05:06:08 39° NNE 05:08:55 10° E
Meteor 1-27 Rocket 4.4 05:03:30 23° NW 05:06:14 35° W 05:11:31 10° SSW
STARLINK 1031 3.6 05:05:56 36° N 05:06:23 39° NNE 05:09:10 10° E
STARLINK 1024 3.6 05:06:07 36° N 05:06:36 39° NNE 05:09:26 10° E
Cosmos 1603 3.7 05:02:03 16° NNW 05:06:45 86° WSW 05:12:28 10° SSE
STARLINK 1035 3.6 05:06:22 36° N 05:06:50 39° NNE 05:09:37 10° E
STARLINK 1032 3.6 05:06:35 36° N 05:07:03 39° NNE 05:09:50 10° E
STARLINK 1011 3.6 05:06:45 36° N 05:07:16 40° NNE 05:10:05 10° E
Okean 1 3.7 05:03:19 10° N 05:07:17 65° E 05:11:13 10° SSE
STARLINK 1036 3.5 05:07:01 36° N 05:07:31 39° NNE 05:10:18 10° E
STARLINK 1047 3.5 05:07:27 36° N 05:07:58 40° NNE 05:10:46 10° E
Cosmos 407 Rocket 4.0 05:06:12 29° WNW 05:08:05 38° WSW 05:12:59 10° SSW
Cosmos 1703 Rocket 3.5 05:03:53 11° NNW 05:08:06 71° W 05:12:30 10° S
USA 116 4.0 05:03:56 10° S 05:08:08 69° WSW 05:12:55 10° NNW
Cosmos 2082 4.5 05:10:06 27° WNW 05:11:24 29° NW 05:16:17 10° N
METEOR-M 4.0 05:06:04 10° N 05:11:26 75° WNW 05:16:45 10° SSW
Cosmos 1140 Rocket 3.7 05:11:47 22° NW 05:14:53 46° WSW 05:19:51 10° S
Starlink Launch 2 leader 2.6 05:16:05 48° N 05:16:24 55° NNE 05:18:50 10° ESE
USA 234 3.7 05:11:10 10° NE 05:17:13 42° NNW 05:21:19 20° WNW
SL-24 R/B 4.3 05:12:58 10° SSE 05:17:34 77° ENE 05:21:49 10° N
Cosmos 1634 Rocket 3.9 05:12:01 10° S 05:18:14 83° W 05:24:28 10° N
Cosmos 2034 Rocket 4.4 05:12:26 10° SW 05:18:16 39° WNW 05:24:11 10° N
ATLAS 5 CENTAUR R/B 3.0 05:19:23 20° NW 05:20:05 21° NNW 05:23:51 10° NNE
Starlink Launch 2 trailer 2.5 05:19:37 46° NNW 05:20:06 60° NNE 05:22:32 10° ESE
Cosmos 1869 Rocket 3.4 05:21:28 10° SSW 05:25:47 78° W 05:30:08 10° N
Cosmos 1627 Rocket 4.5 05:19:55 10° NNW 05:26:05 67° W 05:32:20 10° S
Meteor 1-20 Rocket 4.3 05:21:29 10° SSW 05:27:16 66° WNW 05:33:07 10° N
Meteor 1-18 Rocket 4.1 05:24:06 10° NNW 05:29:39 73° W 05:35:10 10° S
ADEOS Rocket 3.8 05:23:03 10° SSE 05:30:05 63° ENE 05:36:26 10° N
BREEZE-M DEB (TANK) 3.2 05:24:23 10° WSW 05:33:24 69° NNW 05:36:26 10° ENE
Cosmos 1602 3.6 05:33:08 10° SSW 05:36:55 65° W 05:40:44 10° N
STARLINK 1044 2.7 05:35:58 23° NW 05:37:37 70° NNE 05:40:30 10° ESE
STARLINK 1050 3.2 05:37:01 19° NW 05:39:16 68° NNE 05:42:38 10° ESE
Cosmos 1515 4.1 05:35:58 10° N 05:39:46 65° E 05:43:33 10° SSE
Cosmos 1484 Rocket 4.2 05:37:25 10° NNW 05:40:12 19° WNW 05:42:56 10° WSW
STARLINK 1055 3.2 05:39:36 18° NW 05:41:58 71° NNE 05:45:20 10° ESE
SJ-7 4.3 05:38:01 10° N 05:42:01 61° WNW 05:45:56 10° SSW
Okean 3 3.7 05:38:20 10° N 05:42:32 74° E 05:46:43 10° SSE
Cosmos 1340 2.5 05:39:34 10° SSW 05:43:20 78° W 05:47:07 10° N
STARLINK 1022 3.2 05:41:19 18° NW 05:43:45 73° NNE 05:47:08 10° ESE
CZ-4C R/B 3.8 05:39:14 14° WNW 05:44:41 33° WSW 05:51:45 10° S
Cosmos 1092 Rocket 4.5 05:39:42 10° NNW 05:45:16 37° W 05:50:47 10° SSW
STARLINK 1042 3.1 05:44:37 16° NW 05:47:11 77° NNE 05:50:35 10° ESE
STARLINK 1056 3.1 05:47:16 15° NW 05:49:57 81° NNE 05:53:21 10° ESE
STARLINK 1054 3.1 05:49:56 15° WNW 05:52:43 84° NNE 05:56:06 10° ESE
Cosmos 2263 Rocket 2.2 05:48:32 10° SW 05:54:02 59° WNW 05:59:34 10° NNE
CZ-2C R/B 4.1 05:49:35 10° SSE 05:54:15 71° ENE 05:59:02 10° N
Cosmos 2056 Rocket 4.5 05:50:14 10° WSW 05:54:21 24° NW 05:58:31 10° N
STARLINK 1062 3.1 05:52:24 14° WNW 05:55:18 88° NE 05:58:41 10° ESE
FALCON 9 DEB 2.5 05:53:58 16° WNW 05:55:36 50° SW 05:57:53 10° SE
STARLINK 1053 3.1 05:55:18 13° WNW 05:58:19 88° SSW 06:01:43 10° ESE
ATLAS CENTAUR R/B 3.8 05:56:42 10° N 05:59:14 15° NNE 06:01:39 10° ENE
STARLINK 1061 3.1 05:57:38 12° WNW 06:00:44 84° SSW 06:04:08 10° SE
SMAP 3.0 05:56:08 10° NNE 06:00:49 82° WNW 06:05:27 10° SSW
STARLINK 1067 3.1 06:00:18 11° WNW 06:03:31 80° SSW 06:06:54 10° SE
Radarsat Rocket 4.1 05:58:06 10° N 06:04:05 65° WNW 06:10:43 10° SSW
STARLINK 1058 3.1 06:02:53 11° WNW 06:06:11 77° SSW 06:09:35 10° SE
IRS-1C Rocket 4.1 06:01:11 10° NNE 06:06:28 78° WNW 06:11:43 10° SSW
ALOS 3.4 06:04:09 10° NNW 06:07:40 21° WNW 06:11:10 10° WSW
STARLINK 1043 3.2 06:05:31 10° WNW 06:08:55 73° SW 06:12:18 10° SE
Cosmos 1378 Rocket 4.4 06:04:38 10° N 06:08:58 53° ENE 06:13:17 10° SSE
Cosmos 44 3.9 06:05:56 10° SSW 06:10:38 59° ESE 06:15:07 10° NE
Okean 1-7 4.5 06:08:10 10° NW 06:11:15 19° W 06:14:20 10° SW
Timation 1 Rocket 4.4 06:05:36 10° SW 06:11:26 57° WNW 06:17:20 10° NNE
STARLINK 1065 3.2 06:08:10 10° WNW 06:11:35 69° SW 06:14:58 10° SE
Cosmos 1346 Rocket 3.2 06:08:34 10° SW 06:12:12 39° WNW 06:15:52 10° N
CZ-4B R/B 3.8 06:07:20 10° N 06:12:19 35° WNW 06:17:21 10° SW
STARLINK 1063 3.3 06:11:04 10° WNW 06:14:27 66° SW 06:17:50 10° SE
STARLINK 1064 3.3 06:13:41 10° WNW 06:17:04 62° SW 06:20:26 10° SE
STARLINK 1041 3.4 06:16:25 10° WNW 06:19:48 59° SW 06:23:10 10° SE
Cosmos 2221 Rocket 4.3 06:15:52 10° NNW 06:19:51 34° W 06:23:49 10° SSW
CZ-4 R/B 2.7 06:16:56 10° NNE 06:20:39 44° E 06:24:24 10° S
